Location: Venise Bay
(45.0825°N, 73.1481°W)
Time: 20:10:28
(UTC-05:00)

ISS - Pass Details

Date: 23 January 2020
Orbit: 415 x 423 km, 51.6° (Epoch: 28 February)

Event Time Altitude Azimuth Distance (km) Brightness Sun altitude
Rises 19:18:47 0° 264° (W) 2,376 1.4 -26.6°
Reaches altitude 10° 19:20:59 10° 273° (W) 1,511 0.1 -27.0°
Enters shadow 19:22:34 23° 290° (WNW) 962 -1.3 -27.2°
